Wind_Speed
15 15 15 14 15 14 14 14 13 14 14 14 14 14 15 16 16 17 17 16 16 17 18 19 19 20 21 21 21 22 27 30 31 28 20 22 22 18 15 12 11 8 7 13 15 10 7 8 8 7 5 3 3 2 4 5 3 2 3 5 5 6 6 6 6 5 5 6 8 5 4 5 6 5 3 5 4 6 5 5 3 4 6 7 17 31 36 33
16 16 15 15 15 16 16 15 15 14 14 14 14 14 15 15 16 16 17 17 18 18 18 19 18 19 20 21 21 21 27 30 25 24 25 23 19 19 20 17 14 10 8 14 15 10 4 4 5 4 4 2 2 3 4 3 4 5 3 4 7 6 5 5 5 5 5 7 9 3 4 7 6 4 1 1 2 3 7 5 5 6 9 11 20 32 32 33
18 17 17 16 16 16 16 16 17 16 16 16 15 15 15 15 16 16 16 16 18 19 19 19 19 19 19 20 20 21 25 25 16 14 13 9 10 17 21 21 19 12 9 14 14 11 10 6 5 1 3 3 3 4 4 3 4 4 4 5 7 5 5 6 7 9 8 9 10 6 6 8 7 3 2 2 3 3 5 4 4 5 8 12 17 25 28 30
17 17 17 17 17 17 16 16 17 17 17 17 17 16 16 15 15 16 16 17 18 19 19 19 19 19 19 19 18 20 21 14 7 5 6 9 10 10 16 24 19 12 11 14 12 10 11 8 7 3 3 4 3 3 4 5 3 3 5 6 5 5 6 8 9 10 10 10 9 6 7 9 8 3 2 4 3 1 5 7 8 11 13 15 16 20 24 25
17 17 17 17 17 17 17 17 17 17 17 17 17 17 17 16 15 16 16 17 18 18 19 19 19 18 18 18 16 17 13 4 2 3 10 12 12 12 9 21 19 12 11 13 11 9 9 6 2 2 2 4 4 3 5 7 4 3 6 5 4 5 6 8 9 10 11 11 9 5 6 7 7 4 3 5 4 4 6 6 10 15 17 19 19 17 19 19
16 17 17 18 17 17 17 18 17 17 18 18 18 17 17 17 16 17 17 17 17 17 18 18 18 18 18 18 16 11 3 2 4 6 14 18 14 14 7 15 18 14 13 12 10 7 6 3 3 2 2 3 6 6 5 7 6 5 6 4 6 6 6 6 7 10 10 9 7 3 5 4 4 5 2 3 4 7 7 6 14 17 19 21 20 18 18 18
17 16 17 17 17 17 17 17 17 18 18 17 17 17 17 17 17 17 17 17 16 17 18 18 18 17 18 18 13 5 2 8 13 5 12 19 15 15 11 9 17 16 15 12 9 5 3 3 4 4 3 3 5 7 7 6 7 7 7 6 7 8 8 8 9 10 8 8 8 4 5 6 4 5 3 3 5 7 6 6 14 14 16 20 19 17 18 18
17 17 17 17 17 18 17 17 16 17 18 18 17 17 17 17 17 17 18 17 16 17 17 17 18 17 17 15 9 4 3 16 23 10 13 17 12 15 14 6 15 17 16 15 12 7 3 4 6 4 3 5 5 6 8 8 8 9 9 7 7 7 8 10 12 13 10 8 8 7 8 9 8 3 2 6 8 6 2 8 12 13 15 15 16 16 16 16
18 18 18 18 18 18 18 18 17 16 18 19 18 17 17 16 17 17 18 17 16 16 16 17 16 15 15 11 7 6 10 24 23 14 18 19 15 15 15 8 10 15 17 18 15 9 4 5 7 6 4 6 6 6 8 8 7 7 8 8 8 9 8 9 12 14 12 7 6 8 10 11 9 4 2 8 8 3 7 12 12 14 14 13 13 14 13 11
18 18 18 18 19 18 18 19 18 18 18 18 19 18 17 16 16 17 18 18 17 16 16 16 15 14 14 10 7 7 12 18 14 12 15 16 19 21 18 13 10 9 12 14 15 11 8 7 6 4 4 5 5 6 7 7 5 5 7 8 10 11 10 9 11 12 8 6 7 8 11 11 7 5 4 7 7 1 10 12 13 14 13 13 10 8 9 9
18 18 19 19 18 19 19 19 19 20 19 18 19 19 18 18 17 18 17 17 17 16 16 15 14 13 11 8 5 9 12 10 9 13 15 20 25 25 22 19 17 14 11 9 14 17 16 14 8 3 3 4 4 6 6 6 6 6 7 7 10 11 11 11 12 11 6 5 8 8 11 9 5 5 6 6 6 3 11 12 12 12 10 11 12 13 12 11
18 19 19 19 19 19 19 19 19 20 20 19 19 19 19 19 18 18 18 17 16 16 15 15 14 13 11 7 8 20 20 12 16 23 26 29 30 26 25 24 20 18 15 9 10 18 22 19 11 5 5 3 3 5 5 5 5 7 8 7 9 8 10 13 12 11 7 5 7 7 7 7 3 5 7 7 5 3 11 11 11 11 11 13 14 13 10 10
19 19 19 19 19 19 19 20 20 20 20 19 19 19 19 19 19 19 18 17 16 16 16 15 14 13 10 5 15 33 32 26 29 33 36 34 29 28 28 25 23 20 18 14 14 16 20 22 14 7 8 4 3 4 5 7 3 6 6 5 6 5 7 10 10 10 8 5 6 6 3 6 5 7 7 5 5 5 9 10 11 12 11 11 12 11 9 10
20 20 19 19 19 19 19 20 21 21 20 20 19 19 18 18 19 19 19 18 17 15 15 14 14 12 6 9 24 36 31 29 32 32 35 33 26 28 30 24 21 19 18 17 19 18 17 20 15 8 8 6 5 6 8 7 2 4 3 3 4 4 6 7 8 9 8 6 7 7 4 6 6 8 9 7 5 6 9 11 12 13 10 10 10 9 7 7
20 20 19 19 19 19 20 21 22 22 21 20 19 19 19 18 18 19 19 19 17 15 14 14 14 9 5 11 23 26 18 16 26 30 29 30 23 20 24 21 17 17 17 16 17 17 15 13 9 6 5 5 6 6 6 4 2 2 3 3 3 4 5 6 8 10 10 8 7 8 5 4 6 9 9 6 1 7 11 11 11 14 13 11 9 8 8 7
21 20 19 19 20 20 22 22 23 23 22 20 19 20 20 19 20 21 20 19 17 14 12 10 10 6 3 8 12 15 11 11 21 25 23 25 23 20 22 19 17 18 17 14 15 15 14 8 4 5 4 5 6 4 3 4 3 2 4 4 3 5 4 4 6 8 12 10 6 8 6 3 4 8 6 1 6 11 12 11 12 13 12 11 8 8 9 8
21 21 20 20 20 21 22 22 22 22 20 19 19 19 21 21 21 20 19 19 16 14 11 8 7 4 6 11 12 12 11 11 15 19 20 20 20 22 20 13 12 14 13 13 13 10 9 4 3 4 5 5 4 5 4 6 5 3 2 4 4 5 5 4 5 5 8 9 7 6 5 4 3 2 2 3 10 14 13 12 12 11 10 9 8 8 9 9
22 21 21 21 21 21 22 22 22 21 19 19 18 19 22 22 21 20 17 14 10 9 9 10 6 3 6 12 11 9 8 10 13 17 20 16 14 19 17 9 7 8 7 7 6 6 4 2 3 3 4 6 6 6 7 6 5 4 3 4 4 4 6 6 5 4 5 6 8 5 5 7 2 4 4 3 10 15 14 12 11 10 10 8 8 9 9 9
22 22 21 21 21 21 22 22 22 21 19 18 18 19 20 16 13 12 9 4 1 2 3 5 6 4 5 8 9 9 12 18 18 16 16 14 14 16 16 12 8 4 3 2 3 6 4 2 4 5 7 8 8 8 7 4 5 7 6 4 5 5 5 5 4 5 6 5 7 6 6 7 4 6 5 4 8 13 13 11 10 9 9 8 8 9 9 9
22 22 21 21 21 22 22 21 22 21 18 17 18 16 12 6 4 3 1 2 4 7 7 5 8 7 10 13 10 11 18 19 13 10 12 11 13 12 11 9 5 4 4 3 3 4 5 4 7 8 7 8 9 8 7 6 6 7 6 5 6 5 4 5 4 6 6 5 6 8 9 9 6 7 7 7 9 11 12 11 10 10 10 9 10 10 9 8
22 22 21 20 21 23 22 21 21 20 18 18 16 9 3 2 2 2 2 4 9 12 13 12 13 12 14 20 18 13 14 14 13 14 16 11 12 9 6 8 6 5 5 4 4 2 5 7 8 7 6 7 9 8 8 9 9 8 5 5 6 5 6 6 7 8 7 5 6 7 9 10 8 8 8 10 12 12 13 13 12 11 10 9 11 11 9 8
22 21 21 20 20 21 21 21 21 21 18 16 11 3 4 5 6 6 4 6 10 13 14 15 16 15 17 28 27 15 8 10 15 17 14 7 10 8 6 8 7 5 5 4 4 4 7 8 7 6 6 5 7 9 10 10 10 8 6 5 4 4 5 7 9 9 6 4 5 7 8 9 7 9 9 9 10 10 11 13 15 15 13 11 12 11 10 9
21 20 20 19 20 22 21 22 21 17 13 11 7 6 6 8 10 10 5 4 10 12 10 13 15 12 16 24 21 12 10 9 10 15 13 5 7 9 7 9 9 5 6 8 7 7 6 6 7 7 6 7 7 9 11 9 7 6 6 5 5 4 3 5 6 6 5 5 5 6 6 4 4 7 5 3 5 7 6 6 9 12 14 14 14 13 12 12
21 20 19 19 20 21 22 24 18 10 12 13 11 9 8 11 10 8 3 3 8 8 8 15 14 10 17 19 9 9 10 8 8 12 11 4 4 9 8 9 10 7 9 11 10 8 5 5 9 8 8 9 8 8 12 9 6 8 7 6 6 5 7 8 2 2 3 6 8 5 2 1 4 8 5 2 4 6 6 6 6 5 7 9 10 9 10 12
21 19 19 19 19 20 25 22 10 9 17 14 9 8 10 12 10 4 2 2 6 4 5 12 9 10 21 18 9 8 6 7 11 12 8 5 4 7 8 6 7 10 13 12 10 8 6 6 11 11 10 11 10 9 12 10 6 8 8 8 9 7 10 9 1 5 3 5 8 7 4 4 5 9 7 4 5 6 5 7 8 6 6 7 8 7 7 9
22 20 19 20 20 22 22 12 7 15 18 8 6 11 10 11 9 2 3 2 4 3 2 2 5 7 12 10 8 6 4 7 12 13 11 11 9 5 6 6 5 10 12 9 7 5 5 8 12 14 12 11 11 10 11 12 8 7 6 9 11 10 10 8 2 4 2 4 5 7 8 4 3 5 5 5 6 7 5 5 7 7 7 8 8 7 8 10
22 21 21 22 21 21 14 8 13 16 8 4 11 12 8 9 6 1 1 2 3 2 3 1 2 2 4 9 12 8 3 5 8 12 13 13 9 4 5 7 6 8 8 7 6 5 8 12 12 14 13 11 11 9 10 12 9 6 5 7 9 10 11 7 1 2 4 3 5 6 6 3 2 5 4 5 6 6 5 6 7 7 7 8 7 7 9 10
24 24 24 23 20 18 14 13 14 10 5 9 13 9 6 7 3 1 1 2 1 1 2 2 4 3 1 9 13 9 5 2 2 8 11 12 9 2 3 5 6 9 10 8 6 5 9 13 13 15 14 10 9 8 8 11 9 7 5 6 7 8 7 4 4 5 4 3 6 5 3 4 1 2 4 6 6 6 8 9 9 8 8 9 8 8 9 10
27 27 25 22 20 18 14 12 11 8 8 10 9 7 6 4 2 2 1 2 1 1 1 3 5 4 1 7 11 9 6 1 1 1 8 11 10 4 2 3 3 6 11 10 5 6 9 11 12 14 12 9 9 8 8 11 9 6 6 6 6 5 3 3 5 5 3 3 6 7 4 4 0 2 6 5 4 7 10 9 9 8 8 8 8 9 10 10
28 28 25 20 21 18 12 11 13 9 6 6 6 7 5 1 2 1 2 2 2 1 1 3 3 6 4 2 7 8 7 4 4 3 3 6 6 5 3 2 2 3 8 9 6 6 8 9 9 10 10 8 7 7 8 10 9 6 6 6 6 4 1 2 4 2 3 4 6 8 6 5 3 4 6 6 9 13 11 8 9 9 9 9 9 9 10 11
30 30 26 21 19 16 9 8 9 4 3 4 6 6 4 1 1 0 2 1 1 2 2 2 2 5 5 3 2 6 7 7 5 2 2 4 5 5 4 3 3 2 4 6 7 8 8 10 8 6 9 10 7 7 8 9 8 5 6 6 3 4 1 1 3 1 4 5 6 8 6 5 4 4 7 12 13 14 15 12 14 15 13 11 11 11 10 10
32 31 26 19 15 14 11 8 4 2 2 3 4 2 1 2 0 2 2 2 2 2 1 2 3 3 4 3 3 6 6 6 5 3 2 3 5 5 6 5 4 4 5 7 8 7 6 8 8 6 9 12 10 6 6 8 8 6 5 6 4 2 1 3 4 2 4 5 6 6 5 4 4 6 13 18 14 12 17 16 17 18 16 13 12 12 10 9
32 28 20 12 8 12 14 10 5 3 2 2 2 2 2 2 2 2 1 2 1 1 1 3 5 5 3 2 3 6 7 5 4 4 3 2 4 5 7 5 3 2 4 6 6 5 3 5 7 9 9 12 12 8 6 7 8 8 5 6 6 4 3 3 4 2 2 4 6 4 6 4 4 4 12 20 19 16 15 13 16 19 18 16 13 12 11 9
30 23 14 8 8 10 10 9 6 4 4 1 3 3 1 3 3 1 2 1 2 3 2 2 4 5 5 4 3 4 6 4 4 5 4 2 3 5 7 7 8 5 2 5 5 6 6 5 8 11 7 11 14 10 7 5 6 8 5 6 5 5 5 3 3 4 3 4 4 2 3 4 4 3 10 18 16 10 11 10 12 13 12 12 10 9 10 10
26 18 12 10 9 7 6 11 8 6 5 2 4 1 1 3 3 2 2 1 2 3 4 5 5 4 4 5 3 3 3 4 5 6 4 3 3 5 6 7 10 7 2 6 5 5 8 5 6 9 6 12 15 9 8 6 4 6 4 5 5 5 5 2 3 6 4 3 3 1 2 4 5 2 2 6 8 9 12 12 11 10 8 9 8 8 10 10
25 17 11 9 9 5 5 11 10 9 6 4 2 2 3 3 3 1 1 2 2 4 8 9 4 4 3 3 2 4 6 4 4 4 3 4 5 8 8 5 7 9 5 5 3 5 7 4 5 9 8 14 16 11 9 8 5 5 4 5 6 6 6 3 3 2 5 4 3 1 2 5 1 3 7 9 13 11 13 13 13 13 11 10 10 9 10 9
26 18 9 8 9 6 7 10 12 11 5 3 2 3 2 3 4 2 2 2 3 4 6 6 1 1 1 1 2 5 7 5 4 4 2 4 5 7 8 4 6 11 9 5 2 3 6 3 6 12 10 12 15 12 10 8 6 5 5 6 4 4 3 4 3 1 4 4 3 1 4 4 0 0 4 7 12 10 12 14 12 12 12 12 11 10 10 9
22 13 8 8 7 5 9 12 14 11 3 1 5 6 4 3 2 3 2 2 4 4 3 3 0 0 1 1 1 4 7 4 4 5 4 4 3 6 9 6 7 12 12 8 3 2 4 2 5 11 12 9 11 12 9 8 6 5 5 6 5 4 2 1 3 2 3 3 3 2 3 3 2 4 3 7 11 12 12 13 13 14 14 13 11 11 10 9
15 6 3 5 4 5 13 15 13 7 1 3 4 5 4 4 5 4 4 3 5 3 3 3 1 1 1 1 2 1 5 4 4 4 4 4 2 5 10 7 7 12 12 8 5 3 1 3 3 10 12 7 7 8 8 8 5 3 5 5 4 4 4 2 3 4 4 4 3 2 2 3 4 7 10 12 12 14 15 14 15 17 17 14 12 12 11 10
9 3 1 4 2 7 14 13 8 3 2 3 3 4 4 5 6 3 4 4 4 3 4 4 2 2 1 2 2 0 2 5 5 5 4 5 4 6 10 10 8 10 11 10 7 3 1 2 3 7 8 7 5 6 8 8 5 4 5 5 4 3 2 2 2 3 4 4 4 2 2 5 5 5 12 15 14 16 18 17 15 15 15 14 12 12 11 11
5 2 0 3 2 10 12 6 2 2 3 3 4 6 6 6 6 4 5 7 6 5 6 5 4 3 1 1 2 1 1 3 4 5 3 5 6 4 8 14 11 8 9 9 8 4 2 1 3 5 6 6 5 4 7 8 6 6 5 4 6 5 3 3 2 2 2 4 4 5 3 6 5 4 10 14 15 16 17 17 15 14 16 14 12 12 13 12
3 2 2 3 3 9 7 2 3 2 3 4 4 6 8 6 5 6 6 7 7 8 7 6 6 4 2 3 3 2 1 2 3 5 3 6 9 6 7 14 14 8 5 7 8 7 4 2 4 4 4 6 5 6 10 10 6 5 5 4 5 5 5 6 4 3 1 1 1 4 3 6 5 3 7 11 14 16 16 16 16 14 15 13 12 13 13 12
2 4 6 6 4 7 3 2 3 2 4 5 6 7 8 6 5 6 5 5 5 5 5 4 5 4 3 4 3 3 3 3 4 4 4 5 8 11 11 12 14 9 4 4 7 7 4 2 4 3 2 3 3 2 5 7 5 3 3 2 5 5 5 6 4 4 4 2 1 4 2 6 5 3 5 11 14 14 14 14 14 13 11 11 13 14 13 12
3 4 3 3 5 7 1 3 2 3 5 6 8 8 8 7 7 7 6 4 4 3 2 3 3 3 3 3 4 4 3 2 3 4 6 6 7 14 14 11 13 10 5 4 4 4 5 2 4 6 4 4 3 1 0 4 4 4 3 2 4 6 6 5 2 2 2 3 5 6 3 6 6 5 3 11 13 12 10 9 10 12 11 11 11 13 13 13
4 2 1 1 6 6 1 2 2 4 6 7 9 9 8 6 5 6 6 5 6 4 2 2 3 3 4 4 5 6 5 4 3 4 5 5 5 10 11 11 13 12 10 11 7 1 4 3 3 6 7 7 7 4 5 6 3 3 2 2 4 6 8 6 2 3 1 3 4 6 4 5 5 5 5 9 10 9 8 7 7 8 11 12 12 13 13 14
3 2 2 2 3 3 2 3 2 3 4 5 7 7 5 4 4 6 6 5 6 5 3 3 3 3 5 4 3 5 6 6 7 5 5 5 4 3 8 10 12 15 17 17 11 1 2 1 2 7 7 7 6 2 3 6 5 4 3 2 4 5 7 6 5 4 4 3 2 4 5 2 4 4 7 9 10 11 10 9 9 9 10 12 13 14 14 14
1 2 3 3 2 1 2 2 2 3 3 3 3 4 5 5 6 5 3 2 2 3 2 3 4 3 3 3 2 4 5 3 5 7 7 6 5 3 8 11 10 15 17 13 6 1 2 2 1 6 7 4 4 3 3 6 6 7 5 3 6 6 7 8 5 5 4 5 2 7 4 7 1 2 8 10 10 11 12 13 13 12 12 11 11 12 14 14
2 2 1 3 3 2 3 4 4 5 5 4 2 3 5 7 6 4 3 4 4 1 2 2 4 6 7 6 4 3 3 5 4 5 4 2 5 5 5 7 7 11 11 4 2 2 3 1 3 4 5 2 1 2 5 7 5 7 7 4 5 6 9 7 5 6 6 6 6 7 5 7 6 6 10 13 13 13 13 12 11 10 11 10 11 13 14 14
3 2 2 2 3 4 6 9 9 7 5 4 3 3 4 5 6 5 3 3 4 2 4 2 3 5 7 6 3 0 2 2 3 4 2 4 7 5 3 4 4 5 5 2 2 0 3 1 4 2 5 5 5 2 5 8 6 5 6 6 5 6 8 8 5 6 7 5 6 7 6 3 3 7 9 9 10 11 10 9 10 11 12 12 14 15 14 14
3 3 3 2 4 6 6 7 8 6 3 1 2 4 3 4 6 6 3 3 3 1 3 3 4 6 5 2 1 2 3 3 4 5 2 4 7 4 3 3 3 5 6 1 4 2 2 2 4 2 5 4 6 4 3 8 8 6 5 5 4 6 5 4 4 5 4 1 3 7 8 2 1 3 4 3 5 9 10 11 12 12 13 14 14 14 13 13
7 8 7 4 4 6 5 6 6 4 3 2 2 4 3 3 7 8 5 4 4 2 2 3 6 6 4 3 3 4 5 4 6 8 6 3 5 4 2 2 5 8 4 6 5 1 3 0 2 5 5 2 4 3 2 6 6 4 6 8 3 6 3 3 3 5 5 4 2 6 7 3 3 4 6 5 6 10 12 12 12 10 12 15 15 14 13 13
11 10 8 4 4 4 5 6 6 4 3 1 2 5 5 7 10 8 5 3 3 4 4 3 5 5 3 5 6 6 7 9 10 10 9 7 8 7 8 5 7 10 8 7 2 0 2 2 1 4 4 2 5 3 2 6 6 2 7 7 5 4 3 2 2 3 6 7 6 5 5 6 6 8 9 6 6 10 11 12 12 11 12 14 15 15 14 13
Wind_Direction
336 335 332 329 328 329 327 323 322 323 324 324 324 325 327 330 329 329 328 321 313 308 310 314 319 322 322 321 320 323 323 321 319 313 290 265 260 252 245 227 218 236 270 295 280 260 286 267 246 234 209 202 189 204 212 199 193 184 176 202 218 211 206 195 197 205 198 239 252 265 294 246 264 267 270 344 34 98 91 29 26 30 44 103 128 138 142 139
337 335 334 331 328 328 325 322 321 320 317 317 320 319 320 324 325 328 328 325 321 315 311 311 315 319 320 323 323 325 324 319 310 294 280 272 269 254 240 231 228 235 265 276 258 230 235 256 242 205 172 197 215 197 197 195 187 192 175 193 221 212 203 201 214 238 220 248 269 294 312 272 245 219 190 314 269 91 80 39 35 61 66 89 124 137 137 139
337 335 333 330 329 326 324 325 325 322 316 314 315 315 317 316 318 324 324 323 323 322 318 314 314 315 319 323 325 327 325 320 305 279 291 307 288 261 236 224 225 227 243 251 248 231 223 258 301 273 175 212 245 207 196 212 204 199 187 212 231 209 213 225 228 248 247 256 276 298 310 285 251 206 112 197 223 122 133 140 98 116 124 123 135 139 137 141
338 337 334 332 330 326 325 325 325 324 320 317 313 311 314 313 312 315 318 320 320 323 323 322 321 316 319 324 324 329 327 317 287 269 347 7 347 304 236 217 214 216 223 229 242 242 237 271 318 318 209 216 248 220 213 221 209 207 201 215 224 190 219 232 226 247 260 261 270 296 310 294 277 258 140 188 214 231 203 192 167 159 146 139 145 145 143 145
337 336 336 334 331 329 327 325 323 322 319 317 315 310 309 311 311 310 312 314 317 322 322 325 326 321 322 323 323 333 337 315 261 14 10 354 353 349 258 212 200 204 212 217 234 250 255 267 325 320 231 217 230 216 229 223 204 245 228 218 217 191 215 234 231 242 255 265 273 302 298 283 288 280 177 170 205 238 226 197 158 151 148 149 152 150 148 149
334 334 334 331 330 329 327 325 323 321 318 316 316 314 310 310 309 307 308 307 312 317 318 325 326 326 325 320 325 330 330 270 311 17 11 360 359 355 317 209 195 200 214 226 238 249 259 231 169 209 222 222 222 215 235 225 200 240 254 230 226 217 221 236 237 239 242 258 267 273 268 272 320 294 229 156 198 237 244 175 144 151 154 149 149 152 156 157
332 332 331 328 327 324 321 322 322 321 320 317 316 314 312 311 308 307 306 303 306 310 315 323 324 329 327 325 325 297 209 269 276 301 1 3 12 7 349 224 202 207 220 229 228 221 227 203 187 187 201 237 222 215 232 238 216 226 250 246 238 234 233 241 244 244 233 243 254 249 271 277 289 288 305 309 257 266 273 157 138 145 143 141 149 157 162 165
333 332 330 328 326 322 320 317 317 318 318 317 315 313 311 311 308 305 304 302 302 305 310 316 323 331 328 332 323 279 238 250 253 270 324 334 352 6 358 270 213 212 221 226 220 205 205 211 210 190 196 233 221 214 220 230 236 230 237 246 248 243 237 239 244 248 240 239 253 253 261 258 242 239 313 291 278 302 9 114 121 126 130 140 151 157 164 167
334 333 331 330 328 326 324 320 317 314 314 315 312 312 311 310 309 305 303 300 298 300 305 311 320 327 326 325 301 282 253 247 257 290 304 307 314 334 348 324 233 214 213 225 223 203 196 200 211 206 201 238 241 232 215 211 232 227 225 238 244 248 245 236 239 243 243 241 241 247 255 251 233 203 272 271 265 300 98 116 124 129 134 145 151 159 161 152
333 333 331 330 329 327 326 325 322 316 312 311 309 310 309 309 308 304 300 298 299 298 299 307 314 324 328 314 279 266 259 261 277 289 286 297 306 314 326 330 307 251 221 222 216 202 205 207 217 225 230 255 250 239 223 210 230 225 217 233 237 245 250 239 241 239 233 236 220 231 250 245 219 197 247 273 268 128 116 127 135 137 142 143 136 126 102 74
333 332 331 330 330 328 327 326 325 321 315 309 307 306 305 307 306 305 302 297 299 297 295 300 308 320 318 303 276 255 259 269 272 269 280 296 305 311 310 311 315 298 268 234 212 208 212 225 243 273 249 250 249 260 258 232 244 247 232 245 245 246 252 244 247 242 219 228 213 212 247 244 194 195 214 234 271 83 122 138 137 133 125 110 92 82 75 63
334 332 331 331 329 328 327 326 325 323 318 310 305 303 302 302 303 306 304 298 298 296 295 295 302 313 303 287 244 245 250 258 270 279 285 291 298 301 299 299 300 292 281 270 239 222 215 224 235 237 247 270 263 257 270 256 242 239 229 242 256 254 253 244 243 242 223 226 204 184 249 259 205 216 214 206 238 97 126 141 126 113 96 90 88 91 97 106
335 333 332 331 329 327 326 325 326 324 320 314 307 303 300 298 299 301 302 301 297 295 295 293 297 301 295 273 250 255 260 266 274 282 282 284 291 290 289 291 289 285 275 268 268 253 229 224 221 227 252 268 267 259 293 297 259 234 218 207 251 259 257 246 236 240 235 220 180 156 239 261 252 253 251 227 203 125 122 131 116 104 96 104 110 114 129 132
336 335 333 331 329 328 326 325 324 322 320 316 310 303 298 296 296 296 298 298 295 295 292 290 298 298 285 266 269 272 276 275 272 274 274 275 282 288 286 283 281 280 275 268 268 272 254 232 219 226 251 237 254 294 313 311 284 248 232 193 215 220 258 257 230 227 233 225 171 163 238 253 265 272 268 258 206 143 126 122 116 118 119 124 125 120 122 107
338 336 334 332 330 328 326 325 322 321 318 315 310 305 300 295 293 292 293 293 293 293 289 291 292 291 294 270 275 288 296 278 262 258 260 262 263 273 277 277 281 280 278 277 270 267 259 241 214 217 250 224 230 271 293 297 289 239 216 234 208 194 259 264 228 211 219 235 172 169 234 238 243 256 258 264 190 120 123 121 123 135 135 131 129 118 112 105
337 336 334 331 330 328 327 325 323 321 317 312 309 306 301 295 293 292 291 290 289 287 287 292 278 249 245 271 290 308 295 254 253 257 257 253 247 246 259 274 285 284 281 281 276 259 247 242 202 205 230 228 211 205 250 283 292 248 187 224 206 180 231 260 249 217 206 227 198 183 216 193 230 258 264 270 106 111 121 128 136 143 139 134 134 131 129 130
336 336 333 331 330 329 330 327 325 323 317 313 310 306 302 297 293 290 288 286 282 280 271 261 269 251 243 271 301 308 280 257 259 268 265 252 241 241 251 269 280 280 286 290 280 248 226 220 193 200 206 219 195 159 206 237 245 270 183 213 228 187 187 214 258 231 190 211 223 212 215 206 228 310 347 92 121 123 130 141 144 144 142 139 137 139 141 143
335 334 333 333 330 329 331 329 327 325 320 316 311 306 301 294 287 285 286 285 278 279 268 250 260 289 252 255 266 272 283 300 293 281 269 247 233 236 232 238 265 277 292 298 271 213 181 183 191 201 203 205 197 180 201 208 191 211 199 197 232 213 189 192 220 229 185 202 226 229 241 236 211 73 58 96 132 132 138 145 141 143 147 145 141 144 151 150
333 332 333 332 331 331 330 330 328 324 322 318 312 310 305 295 286 280 275 275 219 234 262 226 194 192 279 265 241 260 298 308 302 287 263 227 218 228 218 223 254 268 262 253 205 189 164 163 188 202 214 204 201 196 197 194 167 186 200 200 213 214 219 208 204 228 209 205 225 219 230 234 183 125 115 118 130 128 132 136 135 145 147 145 147 151 156 154
329 329 330 330 331 331 327 328 328 324 323 318 319 323 320 328 329 297 220 179 202 224 248 236 202 217 283 286 276 302 313 310 304 283 264 225 199 206 204 209 226 228 230 211 200 183 156 193 214 206 208 205 201 190 188 213 215 202 203 218 222 214 236 231 219 239 214 202 232 215 218 224 178 151 148 133 123 124 133 138 145 153 149 151 155 156 159 155
327 327 327 328 330 328 325 328 326 322 319 311 317 329 320 359 334 317 340 269 237 228 242 247 236 235 255 265 277 309 320 312 304 291 285 252 193 184 188 186 197 212 210 214 238 200 168 207 221 203 198 203 197 184 188 216 229 229 217 221 233 222 234 233 225 236 208 189 237 219 216 222 179 157 161 145 136 142 150 151 157 159 152 157 159 156 156 149
328 326 325 326 328 328 326 327 321 317 315 304 301 280 246 271 274 286 301 286 264 237 239 249 247 247 253 259 267 280 288 286 291 292 290 254 195 187 172 174 193 202 187 208 239 211 202 218 210 191 197 201 193 187 198 219 225 232 228 217 234 228 239 247 237 238 204 177 240 220 213 223 179 154 165 158 148 158 168 165 165 161 157 165 165 158 156 146
329 327 326 326 327 329 327 324 320 318 319 306 273 233 263 285 286 291 283 280 283 258 236 240 241 241 250 259 261 253 249 256 276 283 278 256 208 198 179 179 189 192 194 203 207 200 208 213 189 186 197 201 204 194 199 223 229 229 225 207 230 232 223 242 244 245 216 198 222 201 201 221 137 126 150 156 134 140 153 163 162 161 163 168 167 161 158 151
330 328 327 326 328 329 326 324 323 328 332 314 275 262 299 314 308 298 273 263 284 272 231 228 228 224 236 247 240 206 225 229 238 268 267 250 200 194 193 187 177 190 213 209 209 213 215 180 171 190 207 203 211 200 197 215 229 232 227 204 220 226 222 234 254 327 261 241 231 187 124 277 155 149 157 124 104 116 126 136 147 165 156 150 153 153 153 151
331 329 326 329 331 330 326 325 325 335 331 314 280 299 330 331 321 282 221 288 281 275 236 225 219 228 233 232 212 201 231 232 226 243 253 264 243 193 194 193 177 199 209 206 209 216 226 182 169 193 214 207 211 210 201 199 213 241 231 207 217 221 231 240 31 36 344 270 239 178 144 278 220 169 165 161 140 129 141 152 155 162 146 143 149 143 140 144
331 328 328 332 332 331 330 328 316 326 326 308 311 337 341 335 327 248 172 292 278 281 311 206 183 221 227 204 182 197 258 261 242 242 247 255 254 222 205 192 187 207 200 198 214 211 213 191 176 193 208 210 216 219 208 193 199 239 209 190 216 225 236 243 73 55 261 257 252 190 178 243 248 189 179 175 151 137 153 166 161 163 160 162 158 147 146 149
329 326 331 332 331 332 331 309 308 319 319 299 324 333 341 341 338 121 134 274 266 289 326 349 169 211 201 167 158 161 220 261 245 235 231 234 241 259 237 195 180 202 186 187 215 193 188 190 185 192 200 212 218 218 210 194 196 230 196 178 209 224 234 240 179 213 230 268 291 230 181 127 193 217 176 145 136 137 174 182 173 175 170 167 158 150 154 156
325 325 327 327 325 322 311 296 296 297 292 313 324 328 348 355 358 98 12 291 257 38 354 290 247 268 213 161 157 174 239 291 233 214 195 205 220 221 238 214 189 189 184 195 207 170 180 194 189 188 198 212 214 213 202 191 205 229 218 207 212 218 222 205 205 238 251 295 293 252 172 106 220 244 122 135 150 170 198 199 187 182 176 171 159 153 154 159
326 324 321 319 315 309 303 291 268 265 304 320 324 325 333 356 51 63 307 282 313 108 80 280 269 303 309 158 163 200 250 288 295 208 152 183 218 218 245 255 219 195 197 206 202 159 181 201 191 186 201 209 204 214 196 189 213 216 211 239 245 235 216 180 211 231 222 239 259 246 197 112 138 203 148 149 188 200 203 201 193 182 178 176 163 158 157 160
325 321 317 314 306 301 302 284 261 267 319 329 317 315 310 300 79 25 264 263 333 332 282 271 308 1 357 177 175 205 233 245 278 314 140 172 204 211 240 270 270 236 210 208 223 208 190 198 200 192 201 197 191 213 201 195 209 190 191 241 272 284 262 204 229 190 171 234 251 241 209 130 151 209 175 180 201 195 186 185 189 184 176 173 169 165 164 167
322 319 317 309 296 291 292 280 261 261 349 350 322 303 302 332 90 102 257 232 278 300 331 288 321 24 23 352 233 203 221 251 265 268 200 170 170 191 211 209 206 229 211 201 227 240 207 194 204 198 191 182 182 211 210 204 208 189 185 202 250 301 329 244 267 143 175 239 257 237 204 140 167 203 203 218 215 186 174 179 184 183 178 173 173 173 171 173
324 323 319 308 287 261 247 247 230 208 323 347 336 312 30 17 259 208 257 287 268 270 18 300 296 10 31 348 280 209 207 240 234 216 228 183 175 199 204 194 180 177 190 192 204 225 227 211 200 185 189 186 184 202 209 210 210 202 186 168 178 249 228 213 234 206 200 233 255 227 180 174 228 212 203 215 220 195 186 183 175 176 177 174 174 174 173 175
326 325 320 312 284 247 235 233 218 213 278 342 10 59 71 322 264 221 263 288 265 245 178 235 270 304 315 302 262 216 209 228 218 214 247 207 185 215 222 225 238 219 179 175 183 186 219 252 209 187 191 190 188 191 199 207 203 201 191 160 171 189 178 211 222 212 212 227 249 223 167 187 260 243 202 205 211 202 188 179 172 174 175 173 173 170 170 176
327 325 320 309 291 269 239 211 200 224 249 328 54 73 72 270 261 278 289 235 238 260 231 226 268 288 264 230 246 228 210 228 219 203 216 207 198 216 220 223 228 243 134 154 177 175 186 236 211 193 181 182 193 196 184 171 180 203 190 136 163 175 160 197 203 182 202 226 266 278 156 174 195 232 213 204 206 182 153 157 169 172 171 165 161 159 166 176
327 324 317 296 284 284 226 194 195 221 218 102 64 100 224 255 260 297 297 257 282 292 292 287 272 267 251 219 236 272 248 236 215 207 214 210 222 221 213 213 212 217 178 169 188 183 191 224 206 194 177 173 189 197 171 148 171 205 168 138 188 186 150 154 188 177 166 185 270 283 201 209 191 282 304 164 140 115 131 145 155 164 165 157 159 164 170 178
331 329 319 286 268 269 195 185 192 198 183 92 57 227 221 235 239 256 286 268 295 312 311 304 269 225 242 185 184 250 248 234 186 191 239 225 232 230 217 208 199 208 207 178 183 172 184 242 205 188 192 182 183 190 184 175 177 182 164 180 199 164 134 122 195 185 98 136 241 241 232 288 275 353 8 93 113 118 135 146 158 166 165 166 176 179 176 178
333 330 313 281 274 252 183 171 178 180 159 90 206 237 249 243 245 251 260 272 284 292 300 305 304 176 248 154 164 209 211 215 173 167 234 241 235 223 211 207 197 211 215 190 205 165 157 254 228 186 195 197 182 184 202 197 173 168 192 202 180 146 124 102 150 333 68 141 259 261 193 269 299 76 355 86 117 135 145 149 160 165 168 177 185 182 177 175
324 314 293 297 297 229 181 172 166 159 122 178 236 264 261 235 239 220 199 253 282 284 278 274 238 25 11 86 245 188 171 181 170 172 214 235 230 199 194 207 209 215 218 197 218 272 151 200 240 189 189 200 180 178 208 225 203 180 187 187 165 169 210 77 150 178 116 158 266 304 232 248 175 172 175 138 145 154 153 154 162 170 180 185 182 178 172 165
319 300 291 333 342 186 182 176 160 140 118 220 239 270 250 248 259 219 180 233 265 265 262 264 216 211 333 328 276 163 154 192 203 198 213 201 228 216 194 200 221 218 216 192 191 278 190 137 201 196 182 175 176 182 199 218 219 156 154 175 164 150 172 184 169 162 148 167 210 281 313 275 225 189 172 170 168 161 160 169 176 180 185 184 177 173 167 165
322 296 310 11 25 176 172 166 151 142 221 218 243 261 261 278 277 227 168 213 246 231 235 252 205 203 298 308 293 102 179 230 226 220 221 182 204 239 201 197 226 218 206 202 201 232 284 132 171 195 172 157 186 199 189 189 184 156 164 180 170 148 160 165 163 154 137 147 173 179 279 269 254 198 170 169 172 172 174 176 179 182 183 183 176 167 165 171
312 304 25 51 167 174 159 152 172 198 227 245 248 253 268 278 276 266 223 217 233 238 242 259 247 235 307 316 300 313 241 269 237 222 239 194 192 236 206 198 217 217 191 206 218 211 226 182 153 178 178 176 188 166 161 173 168 158 175 189 171 166 141 126 209 257 120 136 167 160 203 262 267 203 174 169 172 182 182 173 173 180 181 179 172 165 167 173
300 304 305 331 221 172 149 185 227 208 244 252 249 260 276 277 267 271 248 218 226 234 236 252 251 243 235 229 251 263 256 294 249 219 234 214 201 222 219 199 207 217 185 201 224 214 200 133 139 176 188 185 182 145 152 168 154 143 180 196 160 152 128 128 190 242 146 140 162 125 168 257 265 214 182 176 176 181 181 175 173 176 176 171 164 162 166 172
290 296 303 310 226 164 137 256 228 216 239 256 273 273 279 280 268 274 265 220 220 233 223 232 242 232 216 217 238 254 228 237 249 228 238 244 215 217 222 200 201 221 215 200 218 212 203 154 142 151 121 165 189 90 131 158 141 143 211 192 142 158 156 145 169 186 170 192 130 105 200 255 282 292 197 182 180 177 178 177 169 163 164 160 159 160 163 167
291 278 301 310 178 161 182 265 242 259 261 276 285 280 281 276 260 269 269 223 215 233 218 225 236 220 219 228 239 249 240 232 264 250 239 251 228 218 218 196 192 215 226 204 207 200 210 215 127 127 122 149 171 22 254 203 174 163 201 198 163 161 149 148 143 106 161 217 158 137 219 251 287 320 179 172 174 171 169 165 156 154 156 156 158 160 159 160
308 255 241 234 170 158 209 254 256 281 285 293 292 291 293 273 250 264 269 251 242 238 214 233 243 239 250 261 261 261 251 227 247 273 250 244 240 222 210 187 189 207 226 238 255 243 179 185 122 138 157 168 174 191 205 195 178 159 161 187 188 156 146 164 160 92 198 238 156 146 203 253 308 360 109 143 150 146 138 127 131 148 157 158 160 160 160 160
324 310 305 289 175 168 239 247 250 263 280 301 300 299 299 285 284 285 275 257 236 219 212 242 249 254 250 249 267 264 243 218 219 257 277 266 275 230 177 176 193 206 221 240 261 316 124 168 115 134 156 177 179 197 172 143 140 167 178 226 225 174 131 117 117 148 191 185 179 215 191 145 356 26 105 128 141 141 140 140 143 154 163 166 164 162 161 162
328 335 329 325 296 249 244 225 209 226 260 304 315 311 299 296 307 304 287 276 234 204 222 243 231 235 233 212 229 250 255 254 239 256 272 264 282 270 167 171 198 208 215 237 266 84 105 312 307 134 144 175 186 187 146 115 128 162 169 236 236 187 121 100 136 190 163 124 224 260 192 129 157 195 139 142 151 151 156 162 163 166 167 164 158 156 159 162
352 336 298 303 293 304 315 292 271 265 266 264 268 288 285 288 296 296 304 333 334 212 189 239 220 222 234 232 235 265 308 330 312 281 281 303 312 300 175 169 206 202 197 229 333 95 123 256 259 156 123 80 6 184 147 114 123 161 161 188 219 179 138 134 180 195 153 146 210 233 184 150 176 187 161 157 162 162 164 164 159 158 156 150 150 157 163 166
345 311 295 295 284 294 296 289 292 294 279 256 241 249 265 282 286 270 254 307 309 216 177 207 241 242 249 236 205 273 333 326 315 300 333 7 323 295 156 161 217 173 127 61 318 161 119 234 257 162 92 39 359 326 151 129 127 155 167 185 187 163 156 160 177 175 161 178 194 173 157 148 172 180 173 164 160 155 150 146 146 151 154 155 160 163 167 169
355 306 311 305 285 288 286 293 306 306 289 277 256 242 231 250 278 290 273 242 276 296 165 212 280 298 302 305 149 235 232 191 219 260 309 11 328 312 95 139 182 104 78 342 259 229 121 237 259 90 71 9 351 349 163 148 148 170 209 230 171 126 143 171 158 137 129 213 203 140 126 98 270 170 133 92 121 133 138 148 154 159 161 162 165 166 167 165
326 294 296 299 299 310 315 320 323 314 321 352 302 288 290 271 287 307 303 239 221 213 201 253 301 306 315 350 334 280 272 255 244 248 247 252 273 289 311 224 149 115 139 221 243 259 101 223 305 62 70 335 336 347 175 135 123 159 224 246 204 125 142 208 191 162 152 163 140 109 121 174 214 133 101 94 133 141 146 153 156 161 166 165 167 168 167 159
322 299 298 292 283 310 325 324 327 328 333 332 273 283 288 291 303 314 313 275 221 211 228 272 296 299 326 341 321 289 288 291 279 267 257 238 234 255 266 234 140 132 179 202 194 157 109 106 26 74 96 279 314 329 128 99 87 220 235 226 197 147 152 186 231 202 165 148 146 158 185 192 164 134 121 124 149 153 156 161 160 165 171 171 170 168 165 158
Height
828 827 826 825 824 823 822 821 820 818 818 816 815 814 813 812 810 809 808 807 805 804 803 801 800 799 797 796 795 793 791 787 782 781 776 766 765 768 767 768 767 768 769 769 769 770 770 769 769 770 773 773 774 773 772 772 771 776 783 791 794 792 787 779 776 775 773 770 763 760 759 762 761 752 744 741 745 749 753 754 751 748 747 748 750 754 760 766
827 826 825 824 823 822 821 819 818 817 817 815 814 813 812 811 810 808 807 806 804 803 802 800 800 798 797 795 793 792 790 786 783 778 768 762 764 764 765 766 766 768 769 768 768 769 770 769 768 770 772 774 773 771 772 769 769 776 780 787 787 782 776 769 769 767 766 766 761 760 759 758 757 751 745 749 754 752 757 762 758 755 754 754 754 758 763 766
827 826 824 823 822 821 820 818 817 816 815 814 813 812 811 810 809 808 807 805 804 802 801 800 799 798 796 794 793 792 788 785 780 771 762 761 762 760 762 764 764 767 768 767 767 768 769 768 769 771 773 774 772 770 772 768 768 772 775 783 779 771 769 765 765 763 762 762 761 762 759 757 753 747 746 752 756 754 757 762 762 763 761 758 758 759 764 767
826 825 823 822 821 820 819 817 816 815 814 813 812 811 810 809 808 807 805 804 803 802 800 799 798 797 796 794 793 791 789 784 773 764 761 761 760 758 759 760 763 765 766 767 767 768 767 768 770 770 773 774 771 769 771 768 767 769 770 776 770 765 768 763 761 760 758 759 761 762 760 759 751 746 748 751 758 758 755 753 753 758 760 760 760 760 763 766
825 824 823 822 820 819 818 816 815 814 813 812 810 810 808 808 807 806 805 803 802 801 800 799 797 796 795 794 793 791 790 781 765 761 762 760 759 758 757 758 762 764 765 767 767 767 768 768 770 771 773 773 772 771 770 764 764 767 764 765 763 762 765 760 757 757 756 756 759 761 761 759 750 747 749 750 757 756 748 744 745 750 753 755 758 761 764 766
824 823 822 821 819 818 817 815 814 813 812 810 809 808 807 806 805 804 804 802 801 800 799 798 797 796 794 793 792 792 791 775 760 761 761 759 759 757 758 759 761 763 764 766 766 767 767 768 770 772 772 771 771 770 767 761 762 768 764 760 760 760 761 758 755 755 755 757 760 760 757 754 753 752 748 748 752 746 737 737 741 745 746 749 754 760 764 765
823 822 821 819 818 817 815 814 813 812 811 809 808 807 806 805 804 803 802 801 800 799 799 798 796 796 793 793 791 791 792 775 758 760 760 760 761 758 760 761 761 763 764 765 765 766 767 768 770 771 772 771 769 768 765 761 760 766 765 760 758 757 757 755 753 752 754 757 757 756 755 755 757 754 748 748 745 739 736 734 737 742 745 749 754 759 761 762
822 821 820 818 817 815 814 813 812 811 810 808 807 806 805 804 803 802 800 800 799 798 798 797 796 795 794 793 791 791 790 771 757 760 761 760 761 760 761 761 762 763 763 764 763 765 767 769 769 768 772 771 766 765 762 763 762 763 763 759 756 755 754 752 751 750 752 754 753 754 757 756 754 751 749 747 742 737 737 737 740 744 748 752 756 759 761 763
821 820 819 817 816 814 813 811 810 809 808 807 806 804 803 802 801 800 799 798 797 798 797 796 796 794 794 793 792 792 780 762 758 762 761 760 761 760 762 762 763 762 762 762 762 765 766 767 767 766 769 767 764 763 760 765 765 759 759 758 756 755 752 751 750 749 751 751 751 755 757 753 748 749 751 745 740 738 738 741 744 747 752 755 758 761 763 768
821 819 818 816 815 813 812 810 809 808 806 805 804 803 802 801 800 798 798 797 796 796 795 796 795 794 795 792 794 790 769 759 763 763 761 761 760 760 761 762 764 763 762 761 761 763 763 764 763 762 765 764 762 761 758 762 760 753 755 756 754 753 750 749 749 748 750 750 750 754 755 751 746 749 755 746 737 739 741 745 747 749 754 758 762 768 773 778
820 818 817 815 814 812 811 809 808 806 805 803 802 801 800 799 798 797 796 795 795 795 794 795 794 794 794 792 796 786 762 760 763 760 761 760 759 760 760 761 763 763 762 760 759 759 760 761 761 764 765 761 759 759 756 755 753 751 753 755 753 752 750 748 748 746 748 749 746 749 751 749 747 750 752 744 737 739 744 749 750 753 758 763 769 775 779 784
819 817 816 814 813 811 810 808 806 805 803 802 801 799 798 797 796 796 795 794 793 793 793 793 793 793 792 792 791 774 758 761 761 759 760 759 760 759 759 761 761 762 762 760 759 757 758 758 760 766 763 760 761 760 755 749 750 750 752 758 756 753 752 748 746 744 746 748 741 745 755 755 752 750 745 741 738 739 746 751 754 759 764 769 773 776 779 780
817 816 814 813 811 810 808 807 805 803 801 800 799 797 797 795 794 794 793 792 792 791 791 792 792 791 792 789 775 762 760 763 761 760 758 757 759 757 756 759 758 759 759 759 758 756 757 756 759 763 759 761 763 757 751 747 749 750 750 757 759 760 757 746 744 743 745 745 737 746 766 762 752 747 742 738 737 741 750 755 758 764 768 771 772 773 776 776
816 815 813 811 810 808 807 805 804 802 800 798 797 796 794 793 793 792 791 791 790 790 790 790 791 790 790 782 764 758 762 762 762 760 755 756 758 755 753 755 755 756 756 756 755 754 755 755 757 760 757 759 759 754 753 752 752 751 752 755 759 767 761 744 741 744 745 743 735 747 767 763 751 745 740 737 736 741 753 758 761 766 768 770 770 773 777 777
815 814 812 810 809 807 805 804 802 800 798 796 795 793 792 791 790 789 789 789 788 789 788 789 789 788 789 778 761 757 759 759 758 753 751 754 757 755 751 752 753 753 753 754 753 753 753 753 756 759 757 755 756 760 763 760 755 753 760 763 759 764 760 744 738 740 744 741 735 747 764 761 752 744 738 737 739 743 754 762 764 765 766 769 771 774 778 779
814 813 811 809 807 806 804 802 800 798 796 794 793 791 790 789 787 787 787 785 786 787 787 788 786 788 790 775 759 756 756 754 752 748 749 753 755 753 750 751 752 751 751 751 750 751 750 752 753 754 755 755 757 763 767 768 764 757 762 767 760 761 761 750 740 735 738 740 737 745 756 756 749 743 738 739 741 747 758 765 765 765 767 768 771 773 776 779
813 812 810 808 806 804 803 801 799 796 795 793 791 789 787 786 784 784 783 783 785 784 785 786 784 788 783 766 758 755 751 750 749 748 748 749 752 751 751 753 752 750 750 748 748 748 749 750 751 752 753 756 758 761 770 776 774 765 762 764 759 756 758 755 745 735 734 740 740 742 748 750 747 744 742 741 742 749 759 765 765 766 767 768 770 773 775 778
812 810 808 807 805 803 801 799 797 795 793 791 789 787 785 783 781 781 781 781 782 783 785 783 786 790 773 756 757 753 747 749 748 747 746 747 750 750 752 753 751 751 750 749 747 746 749 749 751 755 754 755 757 760 770 771 769 769 764 762 759 753 753 754 747 737 734 741 743 745 748 747 747 747 747 747 745 749 758 762 765 766 767 769 771 773 775 777
811 809 807 805 803 802 800 798 796 794 792 790 788 786 782 779 778 778 779 780 782 783 783 779 782 783 763 749 752 750 748 749 747 744 744 745 748 748 750 752 751 752 752 751 748 745 748 750 753 757 755 754 754 756 762 759 756 760 758 758 758 754 753 749 743 735 732 742 746 747 750 748 750 752 752 752 749 751 759 762 765 767 768 770 772 773 775 775
810 808 806 804 802 800 798 796 795 793 791 789 787 785 782 780 780 779 779 779 779 777 775 772 772 771 760 749 748 750 749 747 745 744 742 743 745 746 748 750 751 752 754 753 749 743 745 754 755 753 752 750 750 752 753 752 750 752 754 756 754 753 752 745 740 734 730 742 746 744 747 746 751 755 754 754 753 756 762 764 766 766 767 770 771 773 775 775
808 807 805 803 801 799 797 795 793 791 790 788 787 787 785 785 786 784 781 777 773 771 769 767 767 766 761 752 748 753 753 747 744 741 741 742 742 746 747 748 751 753 753 751 749 743 744 754 753 748 748 745 746 748 748 749 749 750 753 755 754 753 750 741 737 733 730 742 745 742 746 746 749 756 756 753 754 758 760 762 765 766 767 769 770 773 774 775
807 805 803 802 800 798 795 793 792 790 789 787 787 788 785 784 785 783 782 778 768 765 766 764 763 762 758 751 749 756 759 754 746 738 738 740 740 743 743 744 750 751 750 751 751 748 748 751 748 745 744 742 744 745 747 748 749 751 753 756 758 752 748 742 735 732 732 741 745 743 747 747 746 754 757 753 752 756 755 753 756 760 765 767 769 771 773 774
806 803 802 800 798 796 794 792 790 788 787 786 786 786 784 782 782 781 782 781 767 758 761 761 758 758 755 748 748 754 757 755 750 738 734 738 738 739 740 742 747 749 749 750 750 751 751 748 743 741 741 742 745 744 746 749 750 753 753 758 759 751 750 749 740 735 734 737 739 741 746 748 750 755 756 754 752 754 756 755 755 756 759 762 765 768 769 770
804 802 801 798 797 795 792 790 788 787 786 785 785 783 782 781 781 780 780 780 770 756 753 752 750 751 746 742 745 751 752 750 748 737 732 736 736 735 738 738 744 749 746 745 746 748 746 739 736 739 740 741 745 744 745 751 754 752 750 754 755 750 748 747 741 737 735 735 733 740 754 756 755 757 755 756 756 756 758 760 761 760 760 762 765 767 767 767
803 801 799 797 796 794 791 789 787 786 785 784 783 781 782 781 779 779 780 781 774 757 747 745 745 741 736 738 744 745 747 744 739 733 731 733 734 734 736 735 740 745 743 742 744 746 742 733 732 738 740 740 744 744 742 747 755 753 747 746 747 746 744 742 742 742 747 748 734 739 765 768 756 755 757 757 758 760 762 761 762 762 762 763 766 768 768 768
802 800 798 796 795 792 790 788 786 786 784 782 782 780 781 780 778 778 779 782 775 755 746 745 742 735 730 737 740 743 751 743 730 730 731 732 732 733 735 733 734 738 738 739 741 740 737 731 730 735 739 740 743 743 738 740 753 755 742 736 740 742 742 743 744 748 756 755 735 733 757 769 764 760 758 758 759 763 765 763 763 762 762 763 764 766 767 767
800 798 797 795 794 792 791 788 786 785 784 782 780 780 780 778 779 778 778 783 773 753 747 746 740 733 730 732 734 744 752 737 723 726 727 729 730 730 734 732 730 733 731 735 741 734 728 730 731 732 737 740 741 741 735 734 747 749 733 730 737 739 742 743 745 749 750 747 738 733 742 760 769 763 757 760 764 767 767 765 765 763 762 763 763 765 765 765
798 796 795 794 792 792 790 788 786 784 783 782 779 780 779 777 780 779 781 783 766 749 748 745 737 732 729 729 731 737 738 727 723 723 720 727 729 728 733 730 728 729 725 731 740 729 722 729 730 730 736 738 736 734 730 730 740 738 727 730 733 734 739 740 742 747 746 749 752 741 737 755 771 765 758 762 766 769 768 764 764 763 762 762 762 764 764 764
796 794 793 792 790 788 787 786 785 782 781 780 780 780 778 778 779 779 785 779 755 745 750 744 736 734 731 731 733 733 730 726 726 720 718 725 726 726 731 728 725 727 722 726 732 725 720 722 721 725 732 733 730 727 725 729 733 729 725 729 729 731 736 737 742 746 747 757 759 744 737 752 773 771 763 767 768 766 764 762 761 761 760 761 761 762 762 762
793 791 790 789 787 785 785 783 781 779 779 779 779 779 778 779 778 783 789 774 750 746 750 744 739 737 735 735 735 734 732 729 724 720 720 722 723 726 727 725 726 727 723 723 726 721 715 714 715 718 722 723 724 723 722 724 725 724 727 732 733 734 736 737 741 743 754 763 753 739 735 744 766 773 763 758 752 747 754 760 760 759 759 759 759 760 760 760
790 788 786 785 784 783 783 781 778 777 778 778 778 777 779 779 780 786 781 758 748 752 749 744 742 739 741 744 741 735 733 730 725 723 724 722 724 728 726 726 728 729 728 727 726 721 715 715 714 711 711 715 720 721 720 719 721 724 728 735 743 745 742 745 746 747 763 766 744 730 731 737 755 766 758 744 732 732 742 750 753 754 754 756 756 757 758 758
786 783 781 780 780 780 780 778 775 777 777 777 777 777 779 781 781 781 767 749 751 756 751 749 745 740 745 748 743 735 733 730 725 725 725 724 726 727 726 725 726 730 733 729 726 725 722 716 711 709 707 709 718 725 725 721 722 727 731 739 753 758 756 759 758 756 761 756 736 726 731 738 742 743 741 735 729 730 732 733 739 745 748 751 753 754 756 756
782 779 777 776 776 775 775 774 774 776 776 776 777 777 781 784 776 766 760 754 753 753 752 753 748 743 745 746 739 732 731 730 726 726 726 724 725 725 724 722 720 725 728 726 727 730 729 719 710 710 708 703 711 724 730 727 725 730 734 740 754 761 765 769 766 761 758 747 732 726 732 741 737 725 725 725 720 721 724 728 733 736 741 746 749 752 755 756
779 776 775 773 773 772 771 772 773 775 775 775 778 780 786 787 769 755 756 755 751 750 751 752 749 745 744 742 735 727 729 731 725 725 726 725 726 725 723 721 718 720 721 724 727 727 732 728 712 706 706 701 704 713 718 720 723 726 726 732 743 748 753 761 759 756 755 744 732 730 735 740 732 720 715 711 710 715 723 730 736 738 741 745 750 754 755 757
776 774 773 771 771 770 769 771 772 774 775 775 779 784 787 781 766 757 758 754 752 751 748 747 748 747 742 737 733 726 727 728 723 724 725 725 726 723 720 718 717 718 720 722 722 719 726 723 703 696 698 697 703 706 704 713 723 722 719 726 735 733 733 744 748 744 743 742 737 734 732 726 719 715 712 709 713 722 728 732 739 744 747 749 752 755 755 755
774 771 770 769 768 768 768 770 771 773 774 776 782 784 780 771 761 758 757 754 755 755 751 746 743 745 742 735 733 730 724 721 722 725 725 722 721 717 715 714 713 715 717 717 714 713 723 719 697 694 697 692 698 701 698 708 718 718 722 726 723 718 720 734 747 743 738 744 746 738 730 721 716 719 719 718 723 730 733 736 741 744 747 751 752 753 753 753
773 770 769 767 766 767 767 768 770 772 774 777 782 778 769 761 754 754 755 755 755 755 755 749 741 742 740 734 733 729 722 719 720 725 726 721 716 712 711 711 708 709 711 711 709 705 713 716 697 693 701 693 690 696 697 698 703 712 723 720 712 716 720 727 742 747 747 751 747 738 733 727 725 731 732 730 734 737 736 738 742 745 747 749 750 751 752 752
773 770 768 765 765 765 766 768 769 771 774 777 779 771 762 758 752 751 755 756 754 753 753 749 743 740 738 736 732 722 719 722 721 722 724 720 714 706 707 709 705 703 703 708 713 704 703 713 703 690 697 694 687 697 706 699 694 702 709 706 711 726 732 732 740 748 753 757 749 740 739 732 727 734 738 738 739 739 738 740 742 745 745 746 747 749 751 754
773 771 768 765 765 764 766 768 768 771 775 776 775 768 758 754 749 747 752 754 753 753 752 747 743 741 739 738 734 723 721 723 721 720 719 717 714 704 702 705 702 700 700 705 714 709 700 708 709 692 688 693 694 701 712 708 699 697 700 703 708 717 724 728 735 739 745 754 752 745 744 732 719 723 730 733 735 735 736 737 737 738 739 740 743 746 750 753
773 772 769 766 766 766 766 768 769 773 774 771 769 763 755 751 747 745 748 752 752 750 747 744 742 743 739 735 733 728 725 722 717 716 713 712 713 706 699 701 700 698 699 701 706 708 702 703 708 698 688 696 703 701 705 709 706 704 708 712 711 711 716 721 728 729 731 744 750 749 748 731 711 712 719 722 727 728 726 727 730 733 735 737 740 744 749 752
774 773 770 766 767 767 768 771 772 773 772 767 764 759 754 751 748 746 745 747 749 745 741 740 739 739 737 734 732 728 727 724 716 712 711 708 710 707 697 695 697 696 699 704 704 704 704 701 704 704 699 702 701 692 692 698 700 703 707 711 712 712 717 727 735 728 722 731 737 741 747 728 706 707 710 711 719 721 718 720 725 730 732 735 739 742 746 749
776 774 770 767 768 767 770 773 772 771 769 764 758 754 751 748 747 745 742 744 746 742 739 738 735 733 734 734 732 727 728 725 716 710 708 704 705 703 693 688 693 693 695 703 700 695 698 700 703 704 701 698 692 685 687 690 692 696 699 702 707 710 714 726 735 727 720 726 729 733 740 723 705 707 707 706 712 713 713 716 719 725 730 733 739 742 746 749
776 773 768 766 767 768 771 771 768 769 765 758 753 750 747 747 746 743 739 742 743 739 737 735 730 728 729 729 728 726 725 721 713 708 704 701 697 694 688 686 691 692 692 697 695 690 694 699 703 704 698 692 688 684 685 686 690 698 699 697 703 708 707 710 719 720 720 726 728 735 741 722 704 706 705 703 707 709 711 713 716 724 731 735 740 742 745 749
776 773 768 767 766 767 771 770 766 765 761 755 753 750 747 744 743 740 738 739 738 734 733 731 726 725 725 724 723 723 720 717 712 705 702 699 691 684 683 685 689 692 691 689 687 686 693 697 698 705 709 706 703 700 696 693 695 699 699 697 698 702 702 703 711 717 721 727 725 730 739 724 705 705 705 704 709 712 715 716 718 725 730 734 739 741 744 748
775 771 767 766 766 767 770 769 767 766 762 759 757 751 747 742 737 735 734 734 731 729 730 728 724 724 723 721 721 718 715 716 713 704 697 694 684 677 680 684 686 688 686 682 679 679 687 694 693 701 714 718 716 712 705 700 699 698 697 697 697 699 701 704 712 719 726 732 726 723 730 724 711 710 709 708 713 718 720 722 723 726 728 731 735 738 741 745
777 773 770 767 765 767 769 768 768 768 763 762 758 750 747 745 738 732 731 731 728 725 726 726 722 723 723 722 723 719 711 709 709 702 696 694 685 676 677 681 682 682 680 679 679 678 682 688 689 693 703 707 705 701 694 693 699 702 700 700 699 699 701 706 714 719 721 727 726 720 721 723 720 719 716 714 718 719 721 724 725 727 729 730 732 735 738 741
778 777 776 772 768 767 768 767 768 767 763 761 758 751 749 748 744 736 730 727 725 723 725 725 722 724 723 720 721 716 707 703 703 700 695 691 685 677 673 676 678 677 678 679 679 679 684 689 691 690 692 693 692 690 687 688 696 700 700 702 702 699 702 708 713 714 716 723 726 721 717 720 724 724 718 716 719 720 720 722 723 725 728 730 733 736 738 742
779 779 777 775 773 770 767 765 764 764 762 761 759 755 751 749 747 742 734 728 726 725 726 725 724 726 722 718 716 711 706 703 701 698 693 688 687 682 675 676 676 674 679 683 680 680 687 692 692 690 689 688 687 687 685 687 692 695 696 701 703 701 702 705 709 710 712 715 716 716 717 715 719 723 718 714 715 716 717 720 721 724 727 731 735 738 740 742
783 781 777 775 775 772 768 764 762 761 759 759 758 755 753 749 744 740 735 732 729 725 724 724 723 720 715 711 710 708 708 708 706 702 697 694 695 689 681 683 681 675 678 685 684 684 689 694 692 688 689 689 689 689 687 687 692 695 696 698 701 702 700 699 703 708 709 708 705 711 718 715 714 719 716 711 711 713 717 720 723 726 730 732 735 737 739 742
788 786 781 777 774 770 766 762 761 759 756 755 754 750 749 747 740 734 732 731 729 724 722 722 720 715 709 706 706 706 706 708 709 705 700 701 700 690 684 685 682 679 683 689 689 686 688 696 694 687 690 694 692 690 689 689 692 695 696 697 700 706 705 700 702 707 710 713 711 709 714 716 715 716 716 716 717 718 720 723 725 727 729 731 734 736 738 742
790 788 785 781 775 768 764 761 759 757 754 754 752 746 744 742 736 732 729 724 723 723 720 719 718 714 709 706 705 705 702 702 704 701 699 703 701 693 689 685 678 683 693 694 691 684 684 694 693 688 697 702 696 694 693 691 695 699 698 696 699 706 707 702 702 703 703 712 719 713 709 713 716 716 718 722 722 722 724 725 727 729 729 730 733 736 738 742
790 787 784 783 777 768 765 762 759 755 753 754 754 748 744 739 730 728 727 720 717 719 716 716 717 714 710 706 702 701 700 698 696 693 692 695 693 690 691 682 673 682 693 690 689 687 685 690 693 694 703 706 701 699 696 697 708 712 703 698 701 705 704 701 701 699 697 705 715 711 703 706 714 717 720 726 728 725 725 725 726 728 730 730 731 733 737 741